Regional Weather Roundup
Issued by NWS

Current Version | Previous Version | Text Only | Print | Product List | Glossary On
Versions: 1 2 3 4 5 6 7 8 9 10 11 12 13 14 15 16 17 18 19 20 21 22 23 24 25 26 27 28 29 30 31 32 33 34 35 36 37 38 39 40 41 42 43 44 45 46 47 48 49 50
000
ASUS44 KLIX 260206
RWRLA
LOUISIANA WEATHER ROUNDUP
NATIONAL WEATHER SERVICE NEW ORLEANS LA
900 PM CDT WED APR 25 2018

NOTE: "FAIR" INDICATES FEW OR NO CLOUDS BELOW 12,000 FEET WITH NO
      SIGNIFICANT WEATHER AND/OR OBSTRUCTIONS TO VISIBILITY.
      SKY/WX - SKY CONDITION AND SIGNIFICANT WEATHER.
      TMP - AIR TEMPERATURE.    DP   - DEWPOINT TEMPERATURE.
      RH  - RELATIVE HUMIDITY.  PRES - PRESSURE.
      HX  - HEAT INDEX.         WCI  - WIND CHILL INDEX.

*  THESE STATIONS ARE NOT NWS OR FAA STATIONS AND ARE NOT UNDER
   NWS QUALITY CONTROL.

LAZ040-048-061>063-065-066-069-260300-
SOUTHEAST LOUISIANA

CITY           SKY/WX    TMP DP  RH WIND       PRES   REMARKS
N.O. INTL ARPT FAIR      70  62  76 S6        29.95R
N.O. LAKEFRONT MOCLDY    76  56  49 CALM      29.96R
N.O. DOWNTOWN* FAIR      79  59  50 CALM      29.97R
RESERVE*       FAIR      73  59  62 W8        29.97R
SLIDELL        FAIR      67  60  78 CALM      29.95S
BATON ROUGE    FAIR      73  60  63 SW10      29.94S
BOOTHVILLE     FAIR      73  65  75 W7        29.98R
BELLE CHASSE   FAIR      68  63  84 SW3       29.96R
BOGALUSA*      FAIR      66  60  78 CALM      29.95F
GALLIANO*      FAIR      70  59  66 W3        29.97S
NEW ROADS*     FAIR      72  60  67 S6        29.95R
GONZALES*      FAIR      71  61  70 CALM      29.96R
HAMMOND*       FAIR      70  59  68 CALM      29.95S
HOUMA*         FAIR      69  63  82 W3        29.97S
PORT FOURCHON* CLEAR     73  61  64 W9        29.99R

$$

LAZ041-044-053-054-260300-
SOUTHWEST LOUISIANA

CITY           SKY/WX    TMP DP  RH WIND       PRES   REMARKS
LAKE CHARLES   FAIR      73  64  73 SW8       29.96R
LAFAYETTE      FAIR      71  60  68 SW8       29.96R
PATTERSON      FAIR      68  65  90 SW7       29.98S
SALT POINT       N/A    N/A N/A N/A CALM      29.97R
NEW IBERIA     FAIR      69  59  70 SW6       29.97R
CHENAULT AIRPK CLEAR     72  64  78 SW9       29.96R

$$

LAZ027-028-260300-
CENTRAL LOUISIANA

CITY           SKY/WX    TMP DP  RH WIND       PRES   REMARKS
FORT POLK      CLOUDY    72  60  66 NW8       29.93R
ALEXANDRIA INT MOCLDY    73  61  65 S3        29.90S
ALEXANDRIA     CLOUDY    68  65  90 SE5       29.91S

$$

LAZ001-002-260300-
NORTHWEST LOUISIANA

CITY           SKY/WX    TMP DP  RH WIND       PRES   REMARKS
SHREVEPORT     LGT RAIN  59  58  96 NW12      30.01R
BARKSDALE AFB  LGT RAIN  58  58  99 N14       29.99F
DTN SHREVEPORT LGT RAIN  60  57  89 NW12      30.00R

$$

LAZ014-016-260300-
NORTHEAST LOUISIANA

CITY           SKY/WX    TMP DP  RH WIND       PRES   REMARKS
MONROE         CLOUDY    68  59  73 W6        29.93S
TALLULAH       RAIN      65  64  97 NW3       29.91S FOG

$$




USA.gov is the U.S. government's official web portal to all federal, state and local government web resources and services.